Regional Weather Roundup
Issued by NWS

Home | Current Version | Previous Version | Text Only | Print | Product List | Glossary Off
Versions: 1 2 3 4 5 6 7 8 9 10 11 12 13 14 15 16 17 18 19 20 21 22 23 24 25 26 27 28 29 30 31 32 33 34 35 36 37 38 39 40 41 42 43 44 45 46 47 48 49 50

000
ASUS43 KIND 262359
RWRIN

WEATHER ROUNDUP FOR INDIANA
NATIONAL WEATHER SERVICE INDIANAPOLIS IN
800 PM EDT MON JUN 26 2017

NOTE: "FAIR" INDICATES FEW OR NO CLOUDS BELOW 12,000 FEET WITH NO
SIGNIFICANT WEATHER AND/OR OBSTRUCTIONS TO VISIBILITY.

* - STATION DOES NOT REPORT WEATHER SUCH AS PRECIPITATION OR FOG.

+ - STATION NOT QUALITY CONTROLLED BY THE NATIONAL WEATHER SERVICE.
    USE DATA WITH CAUTION...ESPECIALLY DEWPOINT AND RELATIVE
    HUMIDITY OBSERVATIONS.

INZ001>003-010>013-019-020-270100-
NORTHWEST INDIANA

CITY           SKY/WX    TMP DP  RH WIND       PRES   REMARKS
GARY /AIRPORT/ PTSUNNY   64  50  59 NE17      30.05R
KNOX *+        MOSUNNY   64  36  34 N12       30.03R
MICHIGAN CITY+ MOSUNNY   63  48  59 NE10G20   30.05R
MONTICELLO +   PTSUNNY   61  53  75 SW8       30.03F
6HR MIN TEMP:  57; 6HR MAX TEMP:  73; 6HR PCP:  0.06;


$$

LMZ046-743>745-270100-
SOUTHERN LAKE MICHIGAN

STATION/POSITION TIME  TEMP    WIND        PRES    WAVE
                       AIR SEA DIR/SP/G            HT
                 (UTC) (F)     (DEG/KT/KT) (MB)    (FT)
BURNS HARBOR     2340   63      40/ 17/ 19 1017.6R
MICHIGAN CITY    2330   61      10/ 17/ 20   N/A
5NW MICH CITY    2350   62 66   10/ 14/ 19   N/A     4

$$

INZ004-005-014>016-021>024-270100-
NORTH CENTRAL INDIANA

CITY           SKY/WX    TMP DP  RH WIND       PRES   REMARKS
ELKHART        SUNNY     64  45  48 NW16      30.02R
GOSHEN         CLOUDY    67  42  40 NW15      30.01R
6HR MIN TEMP:  59; 6HR MAX TEMP:  71; 6HR PCP:  0.01;

SOUTH BEND     MOSUNNY   63  47  55 N18       30.03R
6HR MIN TEMP:  63; 6HR MAX TEMP:  71;


$$

INZ006>009-017-018-025>027-270100-
NORTHEAST INDIANA

CITY           SKY/WX    TMP DP  RH WIND       PRES   REMARKS
FORT WAYNE     CLOUDY    59  53  80 SW9       30.03F
6HR MIN TEMP:  16; 6HR MAX TEMP:  73; 6HR PCP:  0.12;

KENDALLVILLE + PTSUNNY   63  49  59 SW9       30.02R

$$

INZ028-029-035-036-043>045-051>053-270100-
WEST CENTRAL INDIANA

CITY           SKY/WX    TMP DP  RH WIND       PRES   REMARKS
CRAWFORDSVL +  LGT RAIN  55  53  92 NW12      30.10R
6HR MIN TEMP:  55; 6HR MAX TEMP:  71;

GREENCASTLE +  MOSUNNY   68  46  45 W3        30.08F
LAFAYETTE      CLOUDY    58  55  90 W5        30.06F
6HR MIN TEMP:  56; 6HR MAX TEMP:  71; 6HR PCP:  0.07;

TERRE HAUTE    CLOUDY    68  50  52 W9        30.09F
6HR MIN TEMP:  68; 6HR MAX TEMP:  74;


$$

INZ030>032-037>040-046>048-054>057-064-065-270100-
CENTRAL INDIANA

CITY           SKY/WX    TMP DP  RH WIND       PRES   REMARKS
COLUMBUS       MOSUNNY   68  43  40 W8        30.08S
GREENWOOD *+   MOSUNNY   69  46  42 W13G18    30.08R
INDIANAPOLIS   PTSUNNY   69  47  45 W21       30.06S
6HR MIN TEMP:  69; 6HR MAX TEMP:  74;

-EAGLE CREEK   MOSUNNY   68  47  46 W15G24    30.06R
6HR MIN TEMP:  68; 6HR MAX TEMP:  73;

KOKOMO +       LGT RAIN  58  52  80 SW8       30.06F
6HR MIN TEMP:  57; 6HR MAX TEMP:  72; 6HR PCP:  0.09;

MT COMFORT *+  SUNNY     70  48  46 W13       30.06F
SHELBYVILLE    MOSUNNY   71  46  40 W12       30.05F
6HR MIN TEMP:  70; 6HR MAX TEMP:  75;


$$

INZ033-034-041-042-049-050-058-059-270100-
EAST CENTRAL INDIANA

CITY           SKY/WX    TMP DP  RH WIND       PRES   REMARKS
MUNCIE         CLOUDY    63  50  62 N12       30.07R
6HR MIN TEMP:  63; 6HR MAX TEMP:  73;

RICHMOND +     MOSUNNY   68  46  45 W15       30.06F

$$

INZ060-061-067>069-081>083-085>088-270100-
SOUTHWEST INDIANA

CITY           SKY/WX    TMP DP  RH WIND       PRES   REMARKS
EVANSVILLE     CLOUDY    70  50  49 N10       30.11R
6HR MIN TEMP:  70; 6HR MAX TEMP:  79;

HUNTINGBURG *+ CLOUDY    68  50  52 N6        30.11R
6HR MIN TEMP:  68; 6HR MAX TEMP:  77;


$$

INZ062-063-066-070>080-084-089>092-270100-
SOUTH CENTRAL AND SOUTHEAST INDIANA

CITY           SKY/WX    TMP DP  RH WIND       PRES   REMARKS
BLOOMINGTON    CLOUDY    65  49  56 SW5       30.09S
6HR MIN TEMP:  65; 6HR MAX TEMP:  76;

MADISON *+     CLOUDY    70  48  46 W6        30.12R
SEYMOUR +      CLOUDY    70  48  46 W7        30.09R

$$





USA.gov is the U.S. government's official web portal to all federal, state and local government web resources and services.